Location: Boiro
(42.6475°N, 8.8834°W)
Time: 13:04:46
(UTC+01:00)

Vanguard 1 Rocket - Pass Details

Date: 30 November 2021
Orbit: 651 x 4224 km, 34.3° (Epoch: 21 January)

Event Time Altitude Azimuth Distance (km) Brightness Sun altitude
Exits shadow 04:44:46 48° 179° (S) 3,077 9.8 -43.5°
Maximum altitude 04:47:23 51° 153° (SSE) 3,210 10.0 -43.0°
Drops below altitude 10° 05:08:04 10° 86° (E) 7,098 12.6 -39.2°
Sets 05:14:29 0° 83° (E) 8,370 13.2 -38.1°
